| time (UTC) | temp F | wind direction | speed knots | gust knots | rain 1hr in | rain 24hr in | rain mn in | humidity % | barometer mb |
| 20260507161551 | 59 | 53 | 0.0 | 5.2 | 0.00 | 0.00 | 0.00 | 54 | 1017.1 |
| 20260507161040 | 58 | 283 | 0.9 | 4.3 | 0.00 | 0.00 | 0.00 | 54 | 1017.1 |
| 20260507160539 | 58 | 272 | 0.9 | 4.3 | 0.00 | 0.00 | 0.00 | 56 | 1017.1 |
| 20260507160053 | 58 | 54 | 0.9 | 4.3 | 0.00 | 0.00 | 0.00 | 53 | 1017.1 |
| 20260507155538 | 58 | 286 | 1.7 | 4.3 | 0.00 | 0.00 | 0.00 | 54 | 1017.1 |
| 20260507155040 | 58 | 259 | 0.9 | 4.3 | 0.00 | 0.00 | 0.00 | 53 | 1017.0 |
| 20260507154546 | 58 | 120 | 0.9 | 4.3 | 0.00 | 0.00 | 0.00 | 55 | 1017.0 |
| 20260507154036 | 58 | 269 | 0.9 | 9.6 | 0.00 | 0.00 | 0.00 | 53 | 1016.9 |
| 20260507153535 | 57 | 248 | 0.9 | 9.6 | 0.00 | 0.00 | 0.00 | 52 | 1017.0 |
| 20260507153102 | 57 | 27 | 2.6 | 9.6 | 0.00 | 0.00 | 0.00 | 52 | 1017.0 |
| 20260507152539 | 58 | 259 | 0.0 | 3.5 | 0.00 | 0.00 | 0.00 | 56 | 1016.9 |
| 20260507152034 | 57 | 274 | 0.9 | 3.5 | 0.00 | 0.00 | 0.00 | 53 | 1016.9 |
| 20260507151548 | 57 | 206 | 0.0 | 3.5 | 0.00 | 0.00 | 0.00 | 51 | 1016.7 |
| 20260507151035 | 57 | 302 | 0.9 | 3.5 | 0.00 | 0.00 | 0.00 | 53 | 1016.9 |
| 20260507150536 | 57 | 0 | 0.9 | 3.5 | 0.00 | 0.00 | 0.00 | 52 | 1017.0 |
| 20260507150053 | 57 | 75 | 0.0 | 4.3 | 0.00 | 0.00 | 0.00 | 55 | 1016.9 |
| 20260507145536 | 56 | 72 | 0.0 | 4.3 | 0.00 | 0.00 | 0.00 | 53 | 1017.0 |
| 20260507145034 | 56 | 323 | 0.0 | 3.5 | 0.00 | 0.00 | 0.00 | 56 | 1017.0 |
| 20260507144545 | 56 | 0 | 0.0 | 3.5 | 0.00 | 0.00 | 0.00 | 59 | 1017.0 |
| 20260507144039 | 55 | 0 | 0.9 | 3.5 | 0.00 | 0.00 | 0.00 | 57 | 1016.9 |
| 20260507143534 | 55 | 51 | 0.0 | 3.5 | 0.00 | 0.00 | 0.00 | 59 | 1017.0 |
| 20260507143057 | 54 | 0 | 0.0 | 3.5 | 0.00 | 0.00 | 0.00 | 58 | 1017.0 |
| 20260507142536 | 54 | 280 | 0.0 | 6.1 | 0.00 | 0.00 | 0.00 | 58 | 1016.9 |
| 20260507142038 | 54 | 283 | 0.0 | 6.1 | 0.00 | 0.00 | 0.00 | 61 | 1017.0 |
| 20260507141551 | 54 | 225 | 0.9 | 6.1 | 0.00 | 0.00 | 0.00 | 59 | 1017.1 |
| 20260507141035 | 54 | 0 | 0.0 | 3.5 | 0.00 | 0.00 | 0.00 | 60 | 1016.9 |
| 20260507140539 | 54 | 300 | 0.9 | 2.6 | 0.00 | 0.00 | 0.00 | 61 | 1017.0 |
| 20260507140042 | 53 | 257 | 0.0 | 2.6 | 0.00 | 0.00 | 0.00 | 63 | 1017.0 |
| 20260507135544 | 53 | 0 | 0.0 | 2.6 | 0.00 | 0.00 | 0.00 | 69 | 1017.0 |
| 20260507135035 | 52 | 0 | 0.9 | 3.5 | 0.00 | 0.00 | 0.00 | 68 | 1017.1 |
| 20260507134550 | 52 | 287 | 0.0 | 3.5 | 0.00 | 0.00 | 0.00 | 68 | 1017.0 |
| 20260507134035 | 52 | 0 | 0.9 | 3.5 | 0.00 | 0.00 | 0.00 | 66 | 1017.0 |
| 20260507133535 | 51 | 0 | 0.0 | 3.5 | 0.00 | 0.00 | 0.00 | 69 | 1017.0 |
| 20260507133049 | 51 | 300 | 0.0 | 2.6 | 0.00 | 0.00 | 0.00 | 73 | 1017.0 |
| 20260507132535 | 50 | 0 | 0.0 | 2.6 | 0.00 | 0.00 | 0.00 | 70 | 1017.0 |
| 20260507132035 | 50 | 0 | 0.0 | 2.6 | 0.00 | 0.00 | 0.00 | 73 | 1017.1 |
| 20260507131549 | 50 | 280 | 0.0 | 2.6 | 0.00 | 0.00 | 0.00 | 74 | 1016.9 |
| 20260507131037 | 49 | 0 | 0.0 | 2.6 | 0.00 | 0.00 | 0.00 | 76 | 1017.0 |
| 20260507130535 | 49 | 0 | 0.0 | 2.6 | 0.00 | 0.00 | 0.00 | 78 | 1016.9 |
| 20260507130058 | 48 | 264 | 0.0 | 2.6 | 0.00 | 0.00 | 0.00 | 77 | 1016.9 |
| 20260507125539 | 48 | 319 | 0.0 | 2.6 | 0.00 | 0.00 | 0.00 | 77 | 1016.8 |
| 20260507125035 | 48 | 0 | 0.0 | 0.9 | 0.00 | 0.00 | 0.00 | 81 | 1016.8 |
| 20260507124557 | 47 | 260 | 0.0 | 0.9 | 0.00 | 0.00 | 0.00 | 85 | 1016.9 |
| 20260507124035 | 46 | 0 | 0.0 | 0.9 | 0.00 | 0.00 | 0.00 | 84 | 1017.0 |
| 20260507123535 | 46 | 0 | 0.0 | 0.9 | 0.00 | 0.00 | 0.00 | 84 | 1017.0 |
| 20260507123053 | 46 | 0 | 0.0 | 0.9 | 0.00 | 0.00 | 0.00 | 87 | 1017.0 |
| 20260507122536 | 45 | 0 | 0.0 | 1.7 | 0.00 | 0.00 | 0.00 | 88 | 1017.0 |
| 20260507122036 | 44 | 0 | 0.0 | 1.7 | 0.00 | 0.00 | 0.00 | 88 | 1017.1 |
| 20260507121554 | 44 | 0 | 0.0 | 1.7 | 0.00 | 0.00 | 0.00 | 89 | 1017.1 |
| 20260507121036 | 43 | 0 | 0.0 | 0.9 | 0.00 | 0.00 | 0.00 | 92 | 1017.1 |
| 20260507120536 | 43 | 0 | 0.0 | 0.9 | 0.00 | 0.00 | 0.00 | 94 | 1017.0 |
| 20260507120047 | 42 | 0 | 0.0 | 0.9 | 0.00 | 0.00 | 0.00 | 95 | 1016.9 |
| 20260507115536 | 41 | 0 | 0.0 | 0.9 | 0.00 | 0.00 | 0.00 | 97 | 1017.0 |
| 20260507115036 | 41 | 0 | 0.0 | 0.9 | 0.00 | 0.00 | 0.00 | 98 | 1017.0 |
| 20260507114545 | 40 | 0 | 0.0 | 0.9 | 0.00 | 0.00 | 0.00 | 98 | 1017.0 |
| 20260507114039 | 39 | 0 | 0.0 | 0.0 | 0.00 | 0.00 | 0.00 | 98 | 1016.9 |
| 20260507113539 | 39 | 0 | 0.0 | 0.0 | 0.00 | 0.00 | 0.00 | 98 | 1016.9 |
| 20260507113052 | 39 | 0 | 0.0 | 0.0 | 0.00 | 0.00 | 0.00 | 97 | 1016.9 |
| 20260507112540 | 38 | 0 | 0.0 | 0.0 | 0.00 | 0.00 | 0.00 | 97 | 1017.0 |
| 20260507112040 | 38 | 0 | 0.0 | 0.0 | 0.00 | 0.00 | 0.00 | 97 | 1017.0 |
| 20260507111544 | 38 | 0 | 0.0 | 0.0 | 0.00 | 0.00 | 0.00 | 97 | 1017.0 |
| 20260507111035 | 38 | 0 | 0.0 | 0.0 | 0.00 | 0.00 | 0.00 | 97 | 1017.0 |
| 20260507110535 | 38 | 0 | 0.0 | 0.0 | 0.00 | 0.00 | 0.00 | 97 | 1016.9 |
| 20260507110054 | 38 | 0 | 0.0 | 0.0 | 0.00 | 0.00 | 0.00 | 97 | 1016.7 |
| 20260507105539 | 38 | 0 | 0.0 | 0.0 | 0.00 | 0.00 | 0.00 | 96 | 1016.6 |
| 20260507105036 | 38 | 0 | 0.0 | 0.0 | 0.00 | 0.00 | 0.00 | 96 | 1016.5 |
| 20260507104555 | 38 | 0 | 0.0 | 0.0 | 0.00 | 0.00 | 0.00 | 96 | 1016.4 |
| 20260507104035 | 39 | 0 | 0.0 | 0.0 | 0.00 | 0.00 | 0.00 | 96 | 1016.4 |
| 20260507103536 | 39 | 0 | 0.0 | 0.0 | 0.00 | 0.00 | 0.00 | 96 | 1016.4 |
| 20260507103112 | 39 | 0 | 0.0 | 0.0 | 0.00 | 0.00 | 0.00 | 96 | 1016.4 |
| 20260507102536 | 39 | 0 | 0.0 | 0.0 | 0.00 | 0.00 | 0.00 | 97 | 1016.2 |
| 20260507102036 | 39 | 0 | 0.0 | 0.0 | 0.00 | 0.00 | 0.00 | 97 | 1016.3 |
| 20260507101545 | 39 | 0 | 0.0 | 0.9 | 0.00 | 0.00 | 0.00 | 97 | 1016.3 |
| 20260507101036 | 40 | 0 | 0.0 | 0.9 | 0.00 | 0.00 | 0.00 | 97 | 1016.4 |
| 20260507100535 | 40 | 0 | 0.0 | 0.0 | 0.00 | 0.00 | 0.00 | 97 | 1016.3 |
| 20260507100058 | 40 | 0 | 0.0 | 0.0 | 0.00 | 0.00 | 0.00 | 97 | 1016.3 |
| 20260507095536 | 40 | 0 | 0.0 | 0.0 | 0.00 | 0.00 | 0.00 | 97 | 1016.3 |
| 20260507095035 | 40 | 0 | 0.0 | 0.0 | 0.00 | 0.00 | 0.00 | 97 | 1016.3 |
| 20260507094547 | 40 | 0 | 0.0 | 0.0 | 0.00 | 0.00 | 0.00 | 97 | 1016.3 |
| 20260507094035 | 40 | 0 | 0.0 | 0.0 | 0.00 | 0.00 | 0.00 | 97 | 1016.3 |
| 20260507093538 | 40 | 0 | 0.0 | 0.0 | 0.00 | 0.00 | 0.00 | 97 | 1016.3 |
| 20260507093042 | 41 | 0 | 0.0 | 0.0 | 0.00 | 0.00 | 0.00 | 97 | 1016.4 |
| 20260507092538 | 41 | 0 | 0.0 | 0.0 | 0.00 | 0.00 | 0.00 | 97 | 1016.3 |
| 20260507092035 | 41 | 0 | 0.0 | 0.0 | 0.00 | 0.00 | 0.00 | 97 | 1016.2 |
| 20260507091550 | 41 | 0 | 0.0 | 0.0 | 0.00 | 0.00 | 0.00 | 97 | 1016.2 |
| 20260507091035 | 41 | 0 | 0.0 | 0.0 | 0.00 | 0.00 | 0.00 | 97 | 1016.1 |
| 20260507090537 | 41 | 0 | 0.0 | 0.0 | 0.00 | 0.00 | 0.00 | 97 | 1016.1 |
| 20260507090054 | 41 | 0 | 0.0 | 0.0 | 0.00 | 0.00 | 0.00 | 97 | 1016.1 |
| 20260507085535 | 41 | 0 | 0.0 | 0.0 | 0.00 | 0.00 | 0.00 | 97 | 1016.2 |
| 20260507085036 | 41 | 0 | 0.0 | 0.0 | 0.00 | 0.00 | 0.00 | 96 | 1016.1 |
| 20260507084548 | 41 | 0 | 0.0 | 0.0 | 0.00 | 0.00 | 0.00 | 96 | 1015.9 |
| 20260507084034 | 41 | 0 | 0.0 | 0.0 | 0.00 | 0.00 | 0.00 | 96 | 1016.0 |
| 20260507083536 | 41 | 0 | 0.0 | 0.0 | 0.00 | 0.00 | 0.00 | 96 | 1015.9 |
| 20260507083045 | 42 | 0 | 0.0 | 0.0 | 0.00 | 0.00 | 0.00 | 96 | 1016.0 |
| 20260507082535 | 42 | 0 | 0.0 | 0.0 | 0.00 | 0.00 | 0.00 | 96 | 1016.0 |
| 20260507082035 | 42 | 0 | 0.0 | 0.0 | 0.00 | 0.00 | 0.00 | 96 | 1015.9 |
| 20260507081544 | 42 | 0 | 0.0 | 0.0 | 0.00 | 0.00 | 0.00 | 96 | 1015.9 |
| 20260507081035 | 42 | 0 | 0.0 | 0.0 | 0.00 | 0.00 | 0.00 | 96 | 1015.9 |
| 20260507080539 | 42 | 0 | 0.0 | 0.0 | 0.00 | 0.00 | 0.00 | 96 | 1015.9 |
| 20260507080046 | 42 | 0 | 0.0 | 0.0 | 0.00 | 0.00 | 0.00 | 96 | 1015.8 |
| 20260507075535 | 43 | 0 | 0.0 | 0.0 | 0.00 | 0.05 | 0.00 | 96 | 1015.8 |
| 20260507075035 | 43 | 0 | 0.0 | 0.0 | 0.00 | 0.05 | 0.00 | 96 | 1015.9 |
| 20260507074548 | 43 | 0 | 0.0 | 0.0 | 0.00 | 0.05 | 0.00 | 96 | 1015.9 |
| 20260507074035 | 43 | 0 | 0.0 | 0.0 | 0.00 | 0.05 | 0.00 | 96 | 1015.8 |
| 20260507073536 | 43 | 0 | 0.0 | 0.0 | 0.00 | 0.05 | 0.00 | 96 | 1015.9 |
| 20260507073049 | 43 | 0 | 0.0 | 0.0 | 0.00 | 0.05 | 0.00 | 95 | 1016.0 |
| 20260507072536 | 43 | 0 | 0.0 | 0.0 | 0.00 | 0.05 | 0.00 | 95 | 1016.0 |
| 20260507072036 | 43 | 0 | 0.0 | 0.0 | 0.00 | 0.05 | 0.00 | 95 | 1015.9 |
| 20260507071549 | 43 | 0 | 0.0 | 0.0 | 0.00 | 0.05 | 0.00 | 95 | 1015.8 |
| 20260507071036 | 43 | 0 | 0.0 | 0.0 | 0.00 | 0.05 | 0.00 | 95 | 1015.8 |
| 20260507070537 | 44 | 0 | 0.0 | 0.0 | 0.00 | 0.05 | 0.00 | 95 | 1015.7 |
| 20260507065535 | 44 | 0 | 0.0 | 0.0 | 0.00 | 0.18 | 0.00 | 95 | 1015.8 |
| 20260507065038 | 44 | 0 | 0.0 | 0.0 | 0.00 | 0.18 | 0.00 | 95 | 1015.8 |
| 20260507064552 | 44 | 0 | 0.0 | 0.0 | 0.00 | 0.18 | 0.00 | 95 | 1015.8 |
| 20260507064120 | 44 | 0 | 0.0 | 0.0 | 0.00 | 0.18 | 0.00 | 95 | 1015.8 |
| 20260507063539 | 44 | 0 | 0.0 | 0.0 | 0.00 | 0.18 | 0.00 | 95 | 1015.8 |
| 20260507063052 | 44 | 0 | 0.0 | 0.0 | 0.00 | 0.18 | 0.00 | 95 | 1015.9 |
| 20260507062543 | 44 | 0 | 0.0 | 0.0 | 0.00 | 0.18 | 0.00 | 95 | 1016.0 |
| 20260507062039 | 44 | 0 | 0.0 | 0.0 | 0.00 | 0.18 | 0.00 | 94 | 1016.0 |
| 20260507061544 | 45 | 0 | 0.0 | 0.0 | 0.00 | 0.18 | 0.00 | 94 | 1016.1 |
| 20260507061040 | 45 | 0 | 0.0 | 0.0 | 0.00 | 0.18 | 0.00 | 94 | 1016.0 |
| 20260507060541 | 45 | 0 | 0.0 | 0.0 | 0.00 | 0.18 | 0.00 | 94 | 1016.0 |
| 20260507060044 | 45 | 0 | 0.0 | 0.0 | 0.00 | 0.18 | 0.00 | 94 | 1015.9 |
| 20260507055539 | 45 | 0 | 0.0 | 0.0 | 0.00 | 0.31 | 0.00 | 94 | 1015.8 |
| 20260507055039 | 45 | 0 | 0.0 | 0.0 | 0.00 | 0.31 | 0.00 | 94 | 1016.0 |
| 20260507054607 | 45 | 0 | 0.0 | 0.0 | 0.00 | 0.31 | 0.00 | 93 | 1016.0 |
| 20260507054039 | 45 | 0 | 0.0 | 0.0 | 0.00 | 0.31 | 0.00 | 93 | 1016.0 |
| 20260507053543 | 45 | 0 | 0.0 | 0.0 | 0.00 | 0.31 | 0.00 | 92 | 1016.0 |
| 20260507053105 | 45 | 0 | 0.0 | 0.0 | 0.00 | 0.31 | 0.00 | 92 | 1016.0 |
| 20260507052539 | 46 | 0 | 0.0 | 0.0 | 0.00 | 0.31 | 0.00 | 92 | 1016.1 |
| 20260507052039 | 46 | 0 | 0.0 | 0.0 | 0.00 | 0.31 | 0.00 | 92 | 1016.1 |
| 20260507051551 | 46 | 0 | 0.0 | 0.0 | 0.00 | 0.31 | 0.00 | 92 | 1016.0 |
| 20260507051040 | 46 | 0 | 0.0 | 0.0 | 0.00 | 0.31 | 0.00 | 92 | 1015.9 |
| 20260507050541 | 46 | 0 | 0.0 | 0.0 | 0.00 | 0.31 | 0.00 | 92 | 1015.9 |
| 20260507050050 | 46 | 0 | 0.0 | 0.0 | 0.00 | 0.31 | 0.00 | 92 | 1016.0 |
| 20260507045540 | 46 | 0 | 0.0 | 0.0 | 0.00 | 0.44 | 0.00 | 92 | 1016.1 |
| 20260507045040 | 46 | 0 | 0.0 | 0.0 | 0.00 | 0.44 | 0.00 | 91 | 1016.0 |
| 20260507044556 | 46 | 0 | 0.0 | 0.0 | 0.00 | 0.44 | 0.00 | 90 | 1016.0 |
| 20260507044039 | 46 | 0 | 0.0 | 0.0 | 0.00 | 0.44 | 0.00 | 90 | 1016.1 |
| 20260507043540 | 47 | 0 | 0.0 | 0.0 | 0.00 | 0.44 | 0.00 | 89 | 1016.1 |
| 20260507043047 | 47 | 0 | 0.0 | 0.0 | 0.00 | 0.44 | 0.00 | 88 | 1016.1 |
| 20260507042540 | 47 | 0 | 0.0 | 0.0 | 0.00 | 0.44 | 0.00 | 88 | 1016.1 |
| 20260507042039 | 47 | 0 | 0.0 | 0.0 | 0.00 | 0.44 | 0.00 | 87 | 1016.0 |
| 20260507041558 | 47 | 0 | 0.0 | 0.0 | 0.00 | 0.44 | 0.00 | 87 | 1016.0 |
| 20260507041039 | 47 | 0 | 0.0 | 0.0 | 0.00 | 0.44 | 0.00 | 86 | 1016.0 |
| 20260507040539 | 48 | 0 | 0.0 | 0.0 | 0.00 | 0.44 | 0.00 | 86 | 1016.0 |
| 20260507040055 | 48 | 0 | 0.0 | 0.0 | 0.00 | 0.44 | 0.00 | 86 | 1016.0 |
| 20260507035538 | 48 | 0 | 0.0 | 0.0 | 0.00 | 0.47 | 0.44 | 86 | 1016.0 |
| 20260507035039 | 48 | 0 | 0.0 | 0.0 | 0.00 | 0.47 | 0.44 | 86 | 1015.9 |
| 20260507034551 | 49 | 0 | 0.0 | 0.0 | 0.00 | 0.47 | 0.44 | 85 | 1015.9 |
| 20260507034041 | 49 | 0 | 0.0 | 0.0 | 0.00 | 0.47 | 0.44 | 85 | 1015.9 |
| 20260507033535 | 49 | 0 | 0.0 | 0.0 | 0.00 | 0.47 | 0.44 | 85 | 1016.0 |
| 20260507033045 | 49 | 0 | 0.0 | 0.0 | 0.00 | 0.47 | 0.44 | 85 | 1016.0 |
| 20260507032539 | 49 | 0 | 0.0 | 0.0 | 0.00 | 0.47 | 0.44 | 85 | 1016.0 |
| 20260507032036 | 49 | 0 | 0.0 | 0.0 | 0.00 | 0.47 | 0.44 | 85 | 1016.0 |
| 20260507031548 | 49 | 0 | 0.0 | 0.0 | 0.00 | 0.47 | 0.44 | 85 | 1015.9 |
| 20260507031037 | 49 | 0 | 0.0 | 0.0 | 0.00 | 0.47 | 0.44 | 85 | 1016.1 |
| 20260507030536 | 48 | 0 | 0.0 | 0.0 | 0.00 | 0.47 | 0.44 | 85 | 1016.0 |
| 20260507030046 | 48 | 0 | 0.0 | 0.0 | 0.00 | 0.47 | 0.44 | 85 | 1016.0 |
| 20260507025535 | 48 | 0 | 0.0 | 0.0 | 0.00 | 0.48 | 0.44 | 84 | 1016.1 |
| 20260507025036 | 48 | 0 | 0.0 | 0.0 | 0.00 | 0.48 | 0.44 | 84 | 1016.1 |
| 20260507024549 | 48 | 0 | 0.0 | 0.0 | 0.00 | 0.48 | 0.44 | 83 | 1016.0 |
| 20260507024036 | 48 | 0 | 0.0 | 0.0 | 0.00 | 0.48 | 0.44 | 83 | 1016.0 |
| 20260507023538 | 49 | 0 | 0.0 | 0.0 | 0.00 | 0.48 | 0.44 | 83 | 1016.0 |
| 20260507023044 | 49 | 0 | 0.0 | 0.0 | 0.00 | 0.48 | 0.44 | 82 | 1016.0 |
| 20260507022535 | 49 | 0 | 0.0 | 0.0 | 0.00 | 0.48 | 0.44 | 82 | 1015.9 |
| 20260507022036 | 49 | 0 | 0.0 | 0.0 | 0.00 | 0.48 | 0.44 | 82 | 1015.9 |
| 20260507021549 | 49 | 0 | 0.0 | 0.0 | 0.00 | 0.48 | 0.44 | 81 | 1015.9 |
| 20260507021035 | 49 | 0 | 0.0 | 0.0 | 0.00 | 0.48 | 0.44 | 81 | 1015.9 |
| 20260507020538 | 50 | 0 | 0.0 | 0.0 | 0.00 | 0.48 | 0.44 | 80 | 1015.8 |
| 20260507020106 | 50 | 0 | 0.0 | 0.0 | 0.00 | 0.48 | 0.44 | 80 | 1015.7 |
| 20260507015536 | 50 | 0 | 0.0 | 0.0 | 0.00 | 0.54 | 0.44 | 80 | 1015.7 |
| 20260507015036 | 50 | 0 | 0.0 | 0.0 | 0.00 | 0.54 | 0.44 | 79 | 1015.6 |
| 20260507014606 | 51 | 0 | 0.0 | 0.0 | 0.00 | 0.54 | 0.44 | 79 | 1015.7 |
| 20260507014036 | 51 | 0 | 0.0 | 0.0 | 0.00 | 0.54 | 0.44 | 79 | 1015.7 |
| 20260507013535 | 51 | 0 | 0.0 | 0.0 | 0.00 | 0.54 | 0.44 | 78 | 1015.5 |
| 20260507013048 | 52 | 0 | 0.0 | 0.0 | 0.00 | 0.54 | 0.44 | 78 | 1015.5 |
| 20260507012539 | 52 | 0 | 0.0 | 0.0 | 0.00 | 0.54 | 0.44 | 78 | 1015.4 |
| 20260507012035 | 52 | 0 | 0.0 | 0.0 | 0.00 | 0.54 | 0.44 | 77 | 1015.4 |
| 20260507011555 | 53 | 0 | 0.0 | 0.0 | 0.00 | 0.54 | 0.44 | 76 | 1015.3 |
| 20260507011038 | 53 | 0 | 0.0 | 0.0 | 0.00 | 0.54 | 0.44 | 76 | 1015.3 |
| 20260507010539 | 53 | 0 | 0.0 | 0.0 | 0.00 | 0.54 | 0.44 | 75 | 1015.1 |
| 20260507010046 | 54 | 0 | 0.0 | 0.0 | 0.00 | 0.54 | 0.44 | 75 | 1015.1 |
| 20260507005536 | 54 | 0 | 0.0 | 0.0 | 0.00 | 0.64 | 0.44 | 74 | 1015.3 |
| 20260507005036 | 54 | 0 | 0.0 | 0.0 | 0.00 | 0.64 | 0.44 | 73 | 1015.3 |
| 20260507004549 | 55 | 0 | 0.0 | 0.0 | 0.00 | 0.64 | 0.44 | 73 | 1015.2 |
| 20260507004037 | 55 | 0 | 0.0 | 0.0 | 0.00 | 0.64 | 0.44 | 73 | 1015.1 |
| 20260507003535 | 55 | 0 | 0.0 | 0.0 | 0.00 | 0.64 | 0.44 | 72 | 1015.2 |
| 20260507003047 | 55 | 0 | 0.0 | 0.0 | 0.00 | 0.64 | 0.44 | 71 | 1015.2 |
| 20260507002535 | 55 | 0 | 0.0 | 0.9 | 0.00 | 0.64 | 0.44 | 70 | 1015.1 |
| 20260507002037 | 56 | 0 | 0.0 | 0.9 | 0.00 | 0.64 | 0.44 | 69 | 1015.1 |
| 20260507001558 | 56 | 0 | 0.0 | 0.9 | 0.00 | 0.64 | 0.44 | 69 | 1015.0 |
| 20260507001038 | 56 | 0 | 0.0 | 1.7 | 0.00 | 0.64 | 0.44 | 68 | 1015.0 |
| 20260507000538 | 56 | 0 | 0.0 | 1.7 | 0.00 | 0.64 | 0.44 | 66 | 1015.0 |
| 20260507000057 | 57 | 0 | 0.0 | 0.9 | 0.00 | 0.64 | 0.44 | 66 | 1014.9 |
| 20260506235539 | 57 | 0 | 0.0 | 0.9 | 0.00 | 0.67 | 0.44 | 65 | 1014.8 |
| 20260506235037 | 58 | 0 | 0.0 | 2.6 | 0.00 | 0.67 | 0.44 | 62 | 1014.9 |
| 20260506234601 | 58 | 0 | 0.0 | 2.6 | 0.00 | 0.67 | 0.44 | 62 | 1014.7 |
| 20260506234035 | 58 | 0 | 0.0 | 1.7 | 0.00 | 0.67 | 0.44 | 62 | 1014.6 |
| 20260506233536 | 59 | 284 | 0.0 | 1.7 | 0.00 | 0.67 | 0.44 | 60 | 1014.6 |
| 20260506233052 | 59 | 289 | 0.0 | 3.5 | 0.00 | 0.67 | 0.44 | 61 | 1014.7 |
| 20260506232542 | 60 | 51 | 0.0 | 3.5 | 0.00 | 0.67 | 0.44 | 59 | 1014.7 |
| 20260506232035 | 61 | 0 | 0.0 | 1.7 | 0.00 | 0.67 | 0.44 | 60 | 1014.7 |
| 20260506231543 | 61 | 0 | 0.0 | 2.6 | 0.00 | 0.67 | 0.44 | 60 | 1014.7 |
| 20260506231037 | 61 | 0 | 0.0 | 3.5 | 0.00 | 0.67 | 0.44 | 59 | 1014.4 |
| 20260506230537 | 61 | 295 | 0.0 | 4.3 | 0.00 | 0.67 | 0.44 | 61 | 1014.2 |
| 20260506230100 | 60 | 287 | 0.9 | 4.3 | 0.00 | 0.67 | 0.44 | 60 | 1014.1 |
| 20260506225536 | 61 | 265 | 0.0 | 1.7 | 0.00 | 0.68 | 0.44 | 61 | 1014.3 |
| 20260506225036 | 60 | 0 | 0.0 | 1.7 | 0.00 | 0.68 | 0.44 | 63 | 1014.4 |
| 20260506224550 | 59 | 212 | 0.0 | 2.6 | 0.00 | 0.68 | 0.44 | 63 | 1014.4 |
| 20260506224035 | 58 | 288 | 0.0 | 2.6 | 0.00 | 0.68 | 0.44 | 66 | 1014.5 |
| 20260506223535 | 58 | 0 | 0.0 | 1.7 | 0.00 | 0.68 | 0.44 | 66 | 1014.4 |
| 20260506223044 | 58 | 272 | 0.0 | 1.7 | 0.00 | 0.68 | 0.44 | 63 | 1014.5 |
| 20260506222537 | 59 | 0 | 0.0 | 1.7 | 0.00 | 0.68 | 0.44 | 62 | 1014.6 |
| 20260506222036 | 59 | 0 | 0.0 | 1.7 | 0.00 | 0.68 | 0.44 | 65 | 1014.7 |
| 20260506221601 | 59 | 0 | 0.0 | 2.6 | 0.00 | 0.68 | 0.44 | 65 | 1014.7 |
| 20260506221036 | 58 | 0 | 0.0 | 2.6 | 0.00 | 0.68 | 0.44 | 63 | 1014.7 |
| 20260506220535 | 59 | 281 | 0.0 | 1.7 | 0.00 | 0.68 | 0.44 | 60 | 1014.7 |
| 20260506220047 | 58 | 284 | 0.0 | 3.5 | 0.00 | 0.68 | 0.44 | 61 | 1014.9 |
| 20260506215537 | 59 | 270 | 0.0 | 3.5 | 0.00 | 0.70 | 0.44 | 64 | 1014.8 |
| 20260506215036 | 59 | 260 | 0.0 | 0.9 | 0.00 | 0.70 | 0.44 | 65 | 1014.8 |
| 20260506214549 | 59 | 270 | 0.0 | 1.7 | 0.00 | 0.70 | 0.44 | 64 | 1014.9 |
| 20260506214036 | 59 | 0 | 0.0 | 1.7 | 0.00 | 0.70 | 0.44 | 63 | 1014.9 |
| 20260506213539 | 59 | 268 | 0.0 | 1.7 | 0.00 | 0.70 | 0.44 | 64 | 1014.8 |
| 20260506213054 | 59 | 0 | 0.0 | 1.7 | 0.00 | 0.70 | 0.44 | 64 | 1014.7 |
| 20260506212536 | 59 | 0 | 0.0 | 1.7 | 0.00 | 0.70 | 0.44 | 64 | 1014.7 |
| 20260506212039 | 59 | 289 | 0.0 | 3.5 | 0.00 | 0.70 | 0.44 | 63 | 1014.5 |
| 20260506211553 | 59 | 0 | 0.0 | 3.5 | 0.00 | 0.70 | 0.44 | 64 | 1014.6 |
| 20260506211036 | 59 | 309 | 0.0 | 3.5 | 0.00 | 0.70 | 0.44 | 62 | 1014.6 |
| 20260506210536 | 60 | 0 | 0.0 | 1.7 | 0.00 | 0.70 | 0.44 | 62 | 1014.5 |
| 20260506210047 | 60 | 0 | 0.0 | 1.7 | 0.00 | 0.70 | 0.44 | 61 | 1014.4 |
| 20260506205536 | 60 | 0 | 0.0 | 1.7 | 0.00 | 0.78 | 0.44 | 62 | 1014.4 |
| 20260506205035 | 60 | 0 | 0.0 | 2.6 | 0.00 | 0.78 | 0.44 | 60 | 1014.4 |
| 20260506204551 | 60 | 280 | 0.0 | 2.6 | 0.00 | 0.78 | 0.44 | 62 | 1014.4 |
| 20260506204036 | 60 | 283 | 0.0 | 1.7 | 0.00 | 0.78 | 0.44 | 63 | 1014.4 |
| 20260506203536 | 60 | 283 | 0.0 | 1.7 | 0.00 | 0.78 | 0.44 | 59 | 1014.4 |
| 20260506203044 | 60 | 285 | 0.9 | 2.6 | 0.00 | 0.78 | 0.44 | 61 | 1014.4 |
| 20260506202535 | 60 | 283 | 0.0 | 2.6 | 0.00 | 0.78 | 0.44 | 64 | 1014.4 |
| 20260506202037 | 60 | 306 | 0.0 | 1.7 | 0.00 | 0.78 | 0.44 | 66 | 1014.6 |
| 20260506201550 | 59 | 0 | 0.0 | 3.5 | 0.00 | 0.78 | 0.44 | 65 | 1014.6 |
| 20260506201035 | 59 | 307 | 0.9 | 3.5 | 0.00 | 0.78 | 0.44 | 59 | 1014.6 |
| 20260506200535 | 59 | 272 | 0.0 | 2.6 | 0.00 | 0.78 | 0.44 | 63 | 1014.6 |
| 20260506200047 | 59 | 0 | 0.0 | 2.6 | 0.00 | 0.78 | 0.44 | 64 | 1014.6 |
| 20260506195537 | 59 | 301 | 0.0 | 2.6 | 0.00 | 0.87 | 0.44 | 64 | 1014.6 |
| 20260506195039 | 59 | 0 | 0.0 | 2.6 | 0.00 | 0.87 | 0.44 | 64 | 1014.8 |
| 20260506194546 | 59 | 0 | 0.0 | 2.6 | 0.00 | 0.87 | 0.44 | 65 | 1014.6 |
| 20260506194038 | 59 | 296 | 0.9 | 2.6 | 0.00 | 0.87 | 0.44 | 62 | 1014.4 |
| 20260506193540 | 60 | 262 | 0.9 | 3.5 | 0.00 | 0.87 | 0.44 | 62 | 1014.4 |
| 20260506193055 | 60 | 274 | 0.0 | 3.5 | 0.00 | 0.87 | 0.44 | 64 | 1014.3 |
| 20260506192535 | 60 | 65 | 0.0 | 3.5 | 0.00 | 0.87 | 0.44 | 65 | 1014.2 |
| 20260506192038 | 60 | 354 | 0.9 | 3.5 | 0.00 | 0.87 | 0.44 | 64 | 1014.1 |
| 20260506191559 | 60 | 278 | 0.9 | 3.5 | 0.00 | 0.87 | 0.44 | 63 | 1014.0 |
| 20260506191041 | 60 | 250 | 0.9 | 2.6 | 0.00 | 0.87 | 0.44 | 64 | 1013.9 |
| 20260506190538 | 61 | 278 | 0.0 | 3.5 | 0.00 | 0.87 | 0.44 | 65 | 1014.0 |
| 20260506190043 | 61 | 295 | 0.0 | 7.8 | 0.00 | 0.87 | 0.44 | 62 | 1013.9 |
| 20260506185537 | 61 | 276 | 0.9 | 7.8 | 0.00 | 0.90 | 0.44 | 62 | 1013.9 |
| 20260506185038 | 62 | 226 | 0.0 | 7.8 | 0.00 | 0.90 | 0.44 | 61 | 1013.8 |
| 20260506184542 | 62 | 0 | 0.9 | 3.5 | 0.00 | 0.90 | 0.44 | 58 | 1013.8 |
| 20260506184038 | 62 | 0 | 0.0 | 4.3 | 0.00 | 0.90 | 0.44 | 65 | 1013.9 |
| 20260506183537 | 62 | 238 | 0.0 | 4.3 | 0.00 | 0.90 | 0.44 | 60 | 1013.8 |
| 20260506183051 | 63 | 293 | 0.9 | 4.3 | 0.00 | 0.90 | 0.44 | 55 | 1013.7 |
| 20260506182539 | 63 | 0 | 0.0 | 2.6 | 0.00 | 0.90 | 0.44 | 63 | 1013.7 |
| 20260506182038 | 63 | 104 | 0.9 | 3.5 | 0.00 | 0.90 | 0.44 | 66 | 1013.8 |
| 20260506181603 | 63 | 177 | 0.0 | 3.5 | 0.00 | 0.90 | 0.44 | 61 | 1013.8 |
| 20260506181035 | 63 | 243 | 0.9 | 4.3 | 0.00 | 0.90 | 0.44 | 63 | 1013.8 |
| 20260506180538 | 62 | 0 | 0.0 | 4.3 | 0.00 | 0.90 | 0.44 | 66 | 1013.8 |
| 20260506180045 | 62 | 295 | 0.0 | 4.3 | 0.00 | 0.90 | 0.44 | 66 | 1014.0 |
| 20260506175538 | 61 | 131 | 0.0 | 4.3 | 0.00 | 0.90 | 0.44 | 64 | 1014.2 |
| 20260506175038 | 62 | 289 | 0.9 | 4.3 | 0.00 | 0.90 | 0.44 | 63 | 1014.3 |
| 20260506174551 | 62 | 222 | 0.9 | 5.2 | 0.00 | 0.90 | 0.44 | 67 | 1014.3 |
| 20260506174037 | 61 | 81 | 0.0 | 5.2 | 0.00 | 0.90 | 0.44 | 69 | 1014.3 |
| 20260506173539 | 60 | 289 | 0.0 | 4.3 | 0.00 | 0.90 | 0.44 | 71 | 1014.3 |
| 20260506173112 | 60 | 260 | 0.0 | 4.3 | 0.00 | 0.90 | 0.44 | 70 | 1014.4 |
| 20260506172539 | 60 | 282 | 0.9 | 3.5 | 0.00 | 0.90 | 0.44 | 63 | 1014.4 |
| 20260506172037 | 60 | 158 | 0.0 | 3.5 | 0.00 | 0.90 | 0.44 | 74 | 1014.3 |
| 20260506171549 | 59 | 0 | 0.0 | 3.5 | 0.00 | 0.90 | 0.44 | 72 | 1014.4 |
| 20260506171036 | 58 | 302 | 0.9 | 3.5 | 0.00 | 0.90 | 0.44 | 71 | 1014.5 |
| 20260506170536 | 59 | 290 | 0.0 | 2.6 | 0.00 | 0.90 | 0.44 | 67 | 1014.7 |
| 20260506170104 | 58 | 279 | 0.0 | 2.6 | 0.00 | 0.90 | 0.44 | 72 | 1014.8 |
| 20260506165535 | 58 | 281 | 0.0 | 2.6 | 0.00 | 0.90 | 0.44 | 72 | 1014.9 |
| 20260506165035 | 58 | 297 | 0.9 | 2.6 | 0.00 | 0.90 | 0.44 | 66 | 1014.7 |
| 20260506164545 | 58 | 0 | 0.0 | 2.6 | 0.00 | 0.90 | 0.44 | 70 | 1014.8 |
| 20260506164043 | 59 | 0 | 0.0 | 2.6 | 0.00 | 0.90 | 0.44 | 71 | 1015.0 |
| 20260506163539 | 59 | 291 | 0.0 | 3.5 | 0.00 | 0.90 | 0.44 | 69 | 1015.0 |
| 20260506163054 | 59 | 0 | 0.0 | 3.5 | 0.00 | 0.90 | 0.44 | 69 | 1014.8 |
| 20260506162538 | 58 | 0 | 0.0 | 2.6 | 0.00 | 0.90 | 0.44 | 76 | 1014.6 |
| 20260506162040 | 57 | 0 | 0.0 | 4.3 | 0.00 | 0.90 | 0.44 | 74 | 1014.7 |